Location: ????? ??????
(37.8317°N, 23.8750°E)
Time: 01:32:36
(UTC+00:00)

Daily predictions for brighter satellites

Satellite Brightness Start Highest point End
(mag) Time Altitude Azimuth Time Altitude Azimuth Time Altitude Azimuth
Lacrosse 5 4.4 00:50:03 17° NNE 00:50:03 17° NNE 00:51:24 10° NNE
SL-16 R/B 4.5 01:19:18 17° NNW 01:19:18 17° NNW 01:20:41 10° NNW
Cosmos 2369 Rocket 3.8 01:21:55 26° N 01:21:55 26° N 01:24:37 10° N
ADEOS II 4.2 01:19:04 10° N 01:20:30 18° NNW 01:20:30 18° NNW
NOSS 3-3 (A) 4.5 01:31:19 46° N 01:31:19 46° N 01:36:03 10° NNE
NOSS 3-3 (C) 4.5 01:31:25 46° N 01:31:25 46° N 01:36:10 10° NNE
Cosmos 1680 Rocket 4.1 01:35:57 55° ENE 01:35:57 55° ENE 01:40:29 10° NNE
CZ-2C R/B 3.1 01:32:40 10° NNE 01:36:51 50° ENE 01:36:51 50° ENE
CZ-2C R/B 3.2 01:38:02 34° SE 01:40:22 58° ENE 01:45:49 10° N
FENGYUN 3A 4.4 01:37:53 10° N 01:41:38 43° NNW 01:41:38 43° NNW
Cosmos 2112 Rocket 4.3 01:46:12 63° E 01:46:12 63° E 01:51:18 10° NNE
IRS-1D 4.3 01:48:26 10° N 01:51:44 40° NNW 01:51:44 40° NNW
ARIANE 5 R/B 4.4 01:49:12 10° NE 01:53:37 28° E 01:58:02 10° SSE
Cosmos 2074 Rocket 4.0 01:52:19 55° S 01:53:50 82° E 02:00:09 10° N
ALOS 3.5 01:54:41 10° N 01:57:20 32° NNW 01:57:20 32° NNW
Cosmos 1867 3.6 02:00:23 10° NNW 02:05:52 78° ENE 02:11:17 10° SE
Cosmos 1500 Rocket 4.4 02:02:17 10° N 02:06:28 47° E 02:10:38 10° SSE
USA 276 4.5 02:19:39 17° NNE 02:19:39 17° NNE 02:20:40 10° NNE
CBERS-1 4.0 02:16:06 10° N 02:21:10 63° WNW 02:21:49 57° WSW
SeaSat 1 4.4 02:19:35 10° NNW 02:21:50 16° NW 02:21:50 16° NW
Cosmos 1295 Rocket 4.4 02:20:50 27° SSW 02:24:31 79° W 02:30:51 10° N
Cosmos 1461 2.9 02:25:50 68° W 02:26:06 71° WNW 02:30:36 10° NNE
Lacrosse 5 4.3 02:30:31 10° NNW 02:31:23 10° NNW 02:32:16 10° N
GEOS 3 Rocket 3.9 02:28:06 10° SE 02:33:14 71° NE 02:38:31 10° NNW
Cosmos 1743 4.5 02:32:10 10° NNE 02:35:34 32° ENE 02:38:56 10° SE
PAYLOAD A 4.4 02:31:04 10° N 02:36:06 44° WNW 02:37:03 39° W
Cosmos 1151 Rocket 3.6 02:35:29 10° S 02:39:43 57° E 02:43:58 10° NNE
Meteor 1-5 Rocket 4.5 02:38:25 10° NNW 02:43:56 48° W 02:49:32 10° SSW
SL-27 R/B 2.1 02:42:32 10° NNW 02:45:43 87° ENE 02:48:54 10° SSE
Envisat 3.0 02:42:54 10° N 02:47:55 62° WNW 02:51:15 21° SSW
Cosmos 2327 Rocket 4.5 02:42:10 10° SSW 02:48:32 70° W 02:54:56 10° N
Cosmos 1697 Rocket 4.4 02:43:52 10° SSE 02:48:46 32° ESE 02:53:42 10° NE
DELTA 2 R/B (1) 3.7 02:46:34 29° W 02:49:30 74° N 02:55:07 10° E
IRS-1C 4.0 02:45:41 10° N 02:51:00 73° WNW 02:56:01 11° SSW
COSMOS 2455 2.9 02:45:56 14° SSW 02:51:10 79° ESE 02:57:13 10° NNE
Meteor 1-27 Rocket 4.4 02:46:21 10° S 02:52:02 57° E 02:57:39 10° NNE
SL-19 R/B 4.2 02:50:07 10° N 02:55:10 52° WNW 02:58:43 19° SW
YAOGAN 6 3.5 02:58:28 10° NNW 03:01:32 28° WNW 03:01:41 28° WNW
Sich 1 3.0 02:57:46 10° NNW 03:02:09 64° W 03:06:28 10° S
Helios 1A 4.4 03:05:41 19° WNW 03:05:41 19° WNW 03:07:42 10° NW
Cosmos 405 Rocket 2.7 03:01:21 10° S 03:04:57 76° E 03:08:35 10° NNE
Cosmos 1437 Rocket 4.2 03:03:07 10° N 03:06:45 39° ENE 03:10:17 10° SSE
Cosmos 1743 Rocket 4.2 03:07:00 10° NNW 03:11:03 35° W 03:15:06 10° SSW
CZ-2C R/B 3.9 03:09:52 10° NNW 03:13:48 26° WNW 03:16:16 18° WSW
Cosmos 1536 2.9 03:09:57 10° N 03:13:54 80° E 03:17:53 10° S
Cosmos 2297 Rocket 2.9 03:08:29 10° NNW 03:14:05 58° ENE 03:19:38 10° SE
Cosmos 1633 Rocket 3.8 03:10:42 10° N 03:15:04 58° E 03:19:23 10° SSE
CZ-2C R/B 4.0 03:12:13 10° NNW 03:15:09 16° WNW 03:16:12 15° W
NOSS 3-4 (A) 3.9 03:10:17 10° NW 03:17:30 76° WSW 03:25:40 10° SSE
NOSS 3-4 (C) 3.9 03:10:23 10° NW 03:17:37 77° WSW 03:25:47 10° SSE
NOAA 11 4.3 03:13:40 10° N 03:18:57 53° WNW 03:24:13 10° SSW
CZ-2C R/B 4.1 03:19:31 16° WSW 03:20:56 17° W 03:24:30 10° NW
Meteor 1-11 Rocket 3.6 03:15:47 10° NNW 03:21:21 79° W 03:26:50 10° S
CZ-2D R/B 3.8 03:19:45 10° N 03:23:47 44° WNW 03:27:41 10° SW
H-2A R/B 3.0 03:21:12 10° N 03:24:36 41° WNW 03:27:58 10° SW
Cosmos 1484 Rocket 4.0 03:22:42 10° NNW 03:25:38 22° WNW 03:27:41 14° WSW
Cosmos 468 4.5 03:20:26 10° SSW 03:25:45 78° WNW 03:31:06 10° NNE
NOSS 2-1 (C) 4.3 03:22:49 10° NNW 03:27:33 83° ENE 03:34:23 10° SSE
Cosmos 2227 Rocket 3.4 03:25:05 10° N 03:30:32 47° ENE 03:35:56 10° SE
NOSS 2-1 (D) 4.2 03:27:50 10° NNW 03:32:35 90° NE 03:39:23 10° SSE
ARIANE 5 R/B 3.3 03:28:04 10° N 03:32:38 33° WNW 03:37:14 10° SW
SJ-12 3.9 03:31:27 10° NNE 03:35:29 87° E 03:39:28 10° SSW
Cosmos 2218 Rocket 4.0 03:29:23 10° SSW 03:35:40 70° W 03:42:03 10° N
Meteor 1-19 Rocket 4.4 03:30:30 10° S 03:36:18 90° E 03:42:18 10° N
GP-B 3.7 03:32:50 10° NNW 03:36:52 36° W 03:40:54 10° SSW
USA 290 3.8 03:37:37 10° S 03:40:38 38° ESE 03:43:39 10° NE
H-2A R/B 2.7 03:36:15 10° NNE 03:41:06 58° E 03:45:55 10° S
COSMO-SKYMED 1 2.6 03:40:14 10° SSE 03:44:34 87° E 03:48:56 10° NNW
Cosmos 2341 Rocket 4.5 03:40:19 10° SSW 03:46:17 41° WNW 03:52:16 10° N
Spot 4 Rocket 4.2 03:41:36 10° N 03:46:37 55° WNW 03:51:37 10° SSW
Cosmos 1470 Rocket 3.7 03:44:12 10° N 03:48:37 83° E 03:52:57 10° S
Cosmos 1378 3.9 03:46:57 10° SW 03:50:06 29° WNW 03:53:16 10° NNW
Helios 1B rocket 3.6 03:48:21 10° NNW 03:51:31 23° WNW 03:54:41 10° WSW
Cosmos 1328 Rocket 4.1 03:52:01 10° SW 03:55:58 35° WNW 03:59:55 10° NNW
